Location: Ferme V�ronneau
(45.1425°N, 71.8745°W)
Time: 12:58:59
(UTC-04:00)

Tiangong 2 - Visible Passes

Search period start: 19 August 2018 00:00
Search period end: 29 August 2018 00:00
Orbit: 384 x 395 km, 42.8° (Epoch: 19 August)

Date Brightness Start Highest point End Pass type
(mag) Time Alt. Az. Time Alt. Az. Time Alt. Az.
19 Aug 2.9 04:06:55 19° SSE 04:07:02 20° SSE 04:09:26 10° ESE visible
20 Aug 1.9 04:44:01 21° SW 04:45:42 39° SSE 04:48:43 10° E visible
21 Aug 2.7 03:48:46 25° SE 03:48:46 25° SE 03:50:46 10° E visible
21 Aug 1.4 05:21:22 10° WSW 05:24:31 56° S 05:27:40 10° E visible
22 Aug 1.4 04:25:51 37° SW 04:26:40 50° S 04:29:48 10° E visible
23 Aug 3.3 03:30:37 20° ESE 03:30:37 20° ESE 03:31:53 10° E visible
23 Aug 1.3 05:02:56 14° W 05:05:31 55° S 05:08:39 10° ESE visible
24 Aug 1.3 04:07:46 55° SSE 04:07:46 55° SSE 04:10:48 10° E visible
25 Aug 4.1 03:12:40 12° E 03:12:40 12° E 03:12:54 10° E visible
25 Aug 1.4 04:45:00 25° WSW 04:46:28 47° S 04:49:34 10° ESE visible
26 Aug 2.7 03:50:00 28° ESE 03:50:00 28° ESE 03:51:44 10° ESE visible
26 Aug 2.3 05:22:25 10° W 05:25:09 26° SSW 05:27:53 10° SE visible
27 Aug 1.8 04:27:29 35° S 04:27:29 35° S 04:30:19 10° SE visible
28 Aug 2.8 05:05:10 16° SW 05:05:56 17° SSW 05:08:06 10° SSE visible
